User: anonymous   Login
Location: Centrum přírodních věd - Hvězdárna Jičín
(50.4344°N, 15.3406°E)
Time: 06:07:15
(UTC+01:00)
Language:

ISS - Orbit

View from above orbital plane
View from above orbital plane
View from above satellite
View from above satellite

Ground track
Ground track

The orbit data is extracted from the following two-line orbital elements,

1 25544U 98067A   20058.00284546  .00016717  00000-0  10270-3 0  9034
2 25544  51.6414 178.6033 0005508 322.6899  37.3867 15.49208356 14774
Epoch (UTC): 27 February 2020 00:04:05
Eccentricity: 0.0005508
inclination: 51.6414°
perigee height: 415 km
apogee height: 423 km
right ascension of ascending node: 178.6033°
argument of perigee: 322.6899°
revolutions per day: 15.49208356
mean anomaly at epoch: 37.3867°
orbit number at epoch: 1477

The dashed part of the orbit path shows where the satellite is in the earth's shadow,  

DLR